Weather in Vet'

Russia / Kursk Oblast     51°59′04″N   34°42′03″E
temp.,
°C
wind,
m/s
gust,
m/s
humid.,
%
clouds,
%
prec.,
mm/h
press.,
hPa
HPBL,
m
25 february, thu
thu2500:00−4sw3696100 0.1 1031208
03:00−2wsw4797100 0.1 1029265
06:000wsw4995100 0.0 1027426
09:00+1wsw49100100 0.0 1025271
12:00+2w511100100 0.1 1024280
15:00+2w614100100 0.1 1023327
18:00+2w511100100 0.0 1022257
21:00+2wnw51199100 0.1 1023258
26 february, fri
fri2600:00+2wnw511100100 0.2 1023243
03:00+2w510100100 0.2 1023183
06:00+2w510100100 0.0 1021234
09:00+2wsw61299100 0.0 1020331
12:00+3wsw714100100 0.0 1018417
15:00+2w613100100 0.0 1016345
18:00+2w61399100 0.0 1015339
21:00+2w51399100 0.1 1015376
27 february, sat
sat2700:00+2w61396100 0.0 1013494
03:00+1w51196100 0.0 1013438
06:00+1w61295100 0.1 1011515
09:00+1wnw61197100 0.1 1011497
12:00+1wnw61198100 0.0 1011567
15:00+1wnw61098100 0.1 1011520
18:00+1wnw51097100 0.1 1011460
21:00+1nw4898100 0.3 1012348
28 february, sun
sun2800:000nnw4897100 0.1 1012464
03:000nnw489599 0.4 1014412
06:00−1nnw499587 0.1 1016407
09:00−1n599386 0.3 1017491
12:00−1n578993 0.1 1019622
15:00−1nnw578697 0.1 1021728
18:00−1nnw4893100 0.1 1022497
21:00−2nnw5992100 0.2 1024560
1 march, mon
mon100:00−2nnw4793100 0.1 1026424
03:00−3nnw3694100 0.2 1027314
06:00−3nnw369499 0.1 1028274
09:00−2nnw3589100 0.1 1030481
12:00−1nnw348068 0.1 1031735
15:00−1nnw347974 0.1 1031655
18:00−2wnw358842 0.0 1031115
21:00−3wnw378940 0.0 1032168